[ hide orbit diagram ]
For accurate long-term ephemerides, please instead use our Horizons system.This orbit viewer was implemented using two-body methods, and hence should not be used for determining accurate long-term trajectories (over several years or decades) or planetary encounter circumstances.
Orbital Elements at Epoch 2459000.5 (2020-May-31.0) TDB
Reference: JPL 21 (heliocentric ecliptic J2000)
Element | Value | Uncertainty (1-sigma) | Units |
e | .1791532963693298 | 3.2636e-08 | |
a | 2.301609872384686 | 7.5501e-09 | au |
q | 1.889268876790777 | 7.5103e-08 | au |
i | 4.918767391967775 | 3.7734e-06 | deg |
node | 240.6836044348653 | 4.5422e-05 | deg |
peri | 148.6248574424318 | 4.7033e-05 | deg |
M | 124.7160233435732 | 1.2774e-05 | deg |
tp | 2458558.659269429966 (2019-Mar-16.15926943) | 4.4099e-05 | TDB |
period | 1275.398771872475 3.49 | 6.2757e-06 1.718e-08 | d yr |
n | .2822646594456623 | 1.3889e-09 | deg/d |
Q | 2.713950867978595 | 8.9028e-09 | au |
|
| | Orbit Determination Parameters
Additional Information
|
[ show covariance matrix ]
Physical Parameter Table
Parameter |
Symbol |
Value |
Units |
Sigma |
Reference |
Notes |
absolute magnitude |
H |
15.8 |
|
n/a |
MPO359337 |
|
|
85302 (1994 VM) Discovered 1994-Nov-01 by Kobayashi, T. at Oizumi |
Reference: 20040830/Numbers.arc | Last Updated: 2004-09-06 |
|
[ show close-approach data ]
|